Flag for Kazakhstan Weather past 2 weeks in Aqtobe, Kazakhstan

34 °F

Low clouds.

Feels Like: 27 °F
Forecast: 21 / 28 °F
Wind: 8 mph from Southwest

Location: Aktjubinsk

Current Time: Nov 27, 2015 at 5:13:41 AM

Latest Report: Nov 27, 2015 at 4:30 AM

Visibility: N/A

Pressure: 29.89 "Hg

Humidity: 100%

Dew point: 34 °F

Location of AqtobeLocation

Historic Weather in Aqtobe — Graph


Aqtobe temperature yesterday

Maximum temperature yesterday: 32 °F (at 1:30 PM)
Minimum temperature yesterday: 23 °F (at 5:00 AM)
Average temperature yesterday: 29 °F

Past Weeks' High & Low Weather Summary

High36 °F (Nov 12, 2:00 PM)100% (Nov 13, 7:30 PM)30.42 "Hg (Nov 13, 7:30 PM)
Low-6 °F (Nov 20, 11:30 PM)70% (Nov 12, 2:30 PM)29.71 "Hg (Nov 12, 2:00 PM)
Average23 °F90%30.10 "Hg
* Reported Nov 12 5:00 AM — Nov 27 4:00 AM, Aqtobe, Weather by CustomWeather, © 2015

Note: Actual official high and low records may vary slightly from our data, if they occured in-between our weather recording intervals... More about our weather records


Aqtobe weather history for previous 24 hours

Time TempWeatherWind HumidityBarometerVisibility
4:00 AM
Fri, Nov 27
34 °FDrizzle. Low clouds.10 mph100%29.89 "Hg6 mi
3:00 AM34 °FFog.6 mph100%29.92 "Hg3 mi
2:30 AM34 °FFog.6 mph100%29.92 "Hg2 mi
2:00 AM34 °FFog.6 mph100%29.92 "Hg2 mi
1:30 AM34 °FFog.6 mph100%29.92 "Hg1 mi
1:00 AM32 °FIce fog.3 mph100%29.92 "Hg1 mi
12:30 AM32 °FFog.6 mph100%29.92 "Hg1 mi
12:00 AM32 °FFog.6 mph100%29.92 "Hg1 mi
11:30 PM
Thu, Nov 26
32 °FFog.3 mph100%29.92 "Hg1 mi
11:00 PM32 °FFog.6 mph100%29.95 "Hg1 mi
10:30 PM32 °FFog.6 mph100%29.95 "Hg1 mi
10:00 PM32 °FDrizzle. Ice fog.3 mph100%29.95 "Hg2 mi
9:30 PM32 °FDrizzle. Ice fog.3 mph100%29.95 "Hg1 mi
9:00 PM32 °FDrizzle. Ice fog.3 mph100%29.95 "Hg1 mi
8:30 PM32 °FDrizzle. Ice fog.8 mph100%29.95 "Hg3 mi
8:00 PM32 °FDrizzle. Ice fog.10 mph100%29.95 "Hg3 mi
7:30 PM32 °FDrizzle. Ice fog.8 mph100%29.95 "Hg1 mi
7:00 PM32 °FDrizzle. Ice fog.10 mph100%29.95 "Hg2 mi
6:30 PM32 °FDrizzle. Ice fog.6 mph100%29.95 "Hg1 mi
6:00 PM32 °FDrizzle. Ice fog.8 mph100%29.95 "Hg2 mi
5:30 PM32 °FDrizzle. Ice fog.6 mph100%29.95 "Hg2 mi
5:00 PM32 °FIce fog.8 mph100%29.98 "Hg3 mi
4:30 PM32 °FIce fog.8 mph100%29.95 "Hg3 mi
4:00 PM32 °FIce fog.6 mph100%29.95 "Hg2 mi
3:30 PM32 °FIce fog.6 mph100%29.98 "Hg1 mi
3:00 PM32 °FIce fog.8 mph100%29.98 "Hg2 mi
2:30 PM32 °FIce fog.8 mph100%29.98 "Hg2 mi
2:00 PM32 °FIce fog.8 mph100%29.98 "Hg2 mi
1:30 PM32 °FIce fog.8 mph100%29.98 "Hg1 mi
1:00 PM30 °FIce fog.10 mph100%29.98 "Hg2 mi
12:30 PM30 °FIce fog.8 mph100%30.01 "Hg1 mi
12:00 PM30 °FIce fog.8 mph100%30.01 "Hg1 mi
11:30 AM28 °FIce fog.8 mph100%30.01 "Hg1 mi
11:00 AM28 °FIce fog.8 mph100%30.01 "Hg3 mi
10:30 AM28 °FMostly cloudy.10 mph93%30.01 "Hg5 mi
10:00 AM27 °FLow clouds.10 mph93%30.01 "Hg5 mi
9:30 AM27 °FLow clouds.8 mph93%30.01 "Hg5 mi
8:30 AM25 °FPassing clouds.8 mph100%30.01 "HgN/A
8:00 AM25 °FPassing clouds.8 mph100%30.04 "HgN/A
7:30 AM25 °FPassing clouds.8 mph100%30.01 "HgN/A
7:00 AM25 °FPassing clouds.10 mph93%30.01 "HgN/A
6:30 AM23 °FClear.6 mph100%30.04 "Hg10 mi
6:00 AM23 °FClear.6 mph93%30.04 "Hg10 mi
5:30 AM23 °FClear.8 mph93%30.04 "Hg10 mi
5:00 AM23 °FClear.8 mph93%30.04 "Hg10 mi
Weather by CustomWeather, © 2015

See weather overviewHow to use our weather pages